New York Downtown Manhattan/w, NY

10:11 AM EDT on July 20, 2019 (GMT -0400)
New York Downtown Manhattan/w

Weather History for KJRB - May, 2019

Change the Weather History Date:

Wednesday, May 1, 2019

  Actual Average (KEWR) Record (KEWR)
Temperature  
Mean Temperature 53 °F -  
Max Temperature 55 °F 69 °F 88 °F (2010)
Min Temperature 51 °F 50 °F 36 °F (1978)
Degree Days  
Heating Degree Days 12    
Growing Degree Days 3 (Base 50)    
Moisture  
Dew Point 47 °F    
Average Humidity 80    
Maximum Humidity 96    
Minimum Humidity 57    
Precipitation  
Precipitation 0.00 in - - ()
Sea Level Pressure  
Sea Level Pressure 30.36 in    
Wind  
Wind Speed 8 mph (ENE)    
Max Wind Speed 13 mph    
Max Gust Speed 16 mph    
Visibility 8 miles    
Events      
Averages and records for this station are not official NWS values.
T = Trace of Precipitation, MM = Missing Value Source: NWS Daily Summary

Daily Weather History Graph

Daily Weather History Graph

Search for Another Location

Airport or City:

Astronomy

May. 01, 2019 Rise Set
Actual Time 5:55 AM EDT 7:51 PM EDT
Civil Twilight 5:25 AM EDT 8:21 PM EDT
Nautical Twilight 4:49 AM EDT 8:58 PM EDT
Astronomical Twilight 4:10 AM EDT 9:37 PM EDT
Moon 4:40 AM EDT (5/1) 4:36 PM EDT (5/1)
Length of Visible Light 14h 56m
Length of Day
13h 56m
Waning Crescent, 11% of the Moon is Illuminated
May 1
Waning Crescent
May 4
New
May 11
First Quarter
May 18
Full
May 26
Last Quarter

Hourly Weather History & Observations

Time (EDT) Temp. Dew Point Humidity Pressure Visibility Wind Dir Wind Speed Gust Speed Precip Events Conditions
12:56 AM 54.0 °F 48.0 °F 80% 30.43 in 10.0 mi SE 6.9 mph - N/A   Overcast
1:56 AM 54.0 °F 46.9 °F 77% 30.43 in 10.0 mi NE 5.8 mph - N/A   Overcast
2:56 AM 54.0 °F 46.0 °F 75% 30.41 in 10.0 mi NE 5.8 mph - N/A   Overcast
3:56 AM 54.0 °F 45.0 °F 72% 30.40 in 10.0 mi NE 9.2 mph - N/A   Overcast
4:38 AM 53.6 °F 46.4 °F 77% 30.42 in 10.0 mi East 5.8 mph - N/A   Overcast
4:47 AM 53.6 °F 46.4 °F 77% 30.41 in 10.0 mi East 6.9 mph - N/A   Overcast
4:56 AM 53.1 °F 46.9 °F 80% 30.41 in 10.0 mi NE 9.2 mph - N/A   Overcast
5:56 AM 53.1 °F 46.9 °F 80% 30.44 in 10.0 mi SE 5.8 mph - N/A   Overcast
6:56 AM 52.0 °F 46.9 °F 83% 30.46 in 10.0 mi SE 5.8 mph - N/A   Overcast
7:51 AM 51.8 °F 46.4 °F 82% 30.47 in 10.0 mi Variable 4.6 mph - 0.00 in   Overcast
7:56 AM 52.0 °F 46.0 °F 80% 30.47 in 10.0 mi SE 6.9 mph - 0.00 in   Overcast
8:56 AM 53.1 °F 46.0 °F 77% 30.45 in 10.0 mi East 6.9 mph - N/A   Overcast
9:56 AM 54.0 °F 44.1 °F 69% 30.45 in 10.0 mi Variable 5.8 mph - N/A   Overcast
10:56 AM 54.0 °F 44.1 °F 69% 30.46 in 10.0 mi SE 10.4 mph - N/A   Overcast
11:56 AM 54.0 °F 43.0 °F 66% 30.45 in 10.0 mi SE 10.4 mph - N/A   Overcast
12:56 PM 55.0 °F 39.9 °F 57% 30.42 in 10.0 mi SE 12.7 mph - N/A   Overcast
1:37 PM 55.4 °F 42.8 °F 63% 30.41 in 10.0 mi ESE 8.1 mph - N/A   Overcast
1:56 PM 55.0 °F 42.1 °F 62% 30.40 in 10.0 mi SE 10.4 mph - N/A   Overcast
2:56 PM 54.0 °F 43.0 °F 66% 30.39 in 10.0 mi East 8.1 mph - N/A   Overcast
3:56 PM 53.1 °F 45.0 °F 74% 30.36 in 9.0 mi Variable 6.9 mph - N/A   Overcast
4:56 PM 53.1 °F 46.0 °F 77% 30.33 in 10.0 mi ENE 10.4 mph 16.1 mph N/A   Overcast
5:45 PM 51.8 °F 46.4 °F 82% 30.32 in 10.0 mi ENE 9.2 mph - N/A   Overcast
5:56 PM 52.0 °F 46.9 °F 83% 30.33 in 10.0 mi ENE 9.2 mph - N/A   Overcast
6:34 PM 51.8 °F 48.2 °F 88% 30.31 in 4.0 mi NE 8.1 mph - N/A   Overcast
6:56 PM 51.1 °F 48.0 °F 89% 30.30 in 3.0 mi NE 10.4 mph - N/A   Overcast
7:14 PM 51.8 °F 48.2 °F 88% 30.29 in 2.5 mi NE 10.4 mph - N/A   Overcast
7:32 PM 51.8 °F 48.2 °F 88% 30.29 in 3.0 mi NE 8.1 mph - N/A   Overcast
7:49 PM 51.8 °F 48.2 °F 88% 30.28 in 2.5 mi NE 11.5 mph - N/A   Overcast
7:56 PM 51.1 °F 48.9 °F 92% 30.28 in 3.0 mi NE 10.4 mph - N/A   Overcast
8:05 PM 51.8 °F 48.2 °F 88% 30.28 in 2.5 mi NE 9.2 mph - N/A   Overcast
8:20 PM 51.8 °F 48.2 °F 88% 30.28 in 2.5 mi NE 9.2 mph - N/A   Overcast
8:56 PM 51.1 °F 48.9 °F 92% 30.27 in 2.5 mi NE 8.1 mph - N/A   Overcast
9:12 PM 51.8 °F 48.2 °F 88% 30.26 in 3.0 mi NNE 8.1 mph - N/A   Overcast
9:56 PM 51.1 °F 50.0 °F 96% 30.25 in 3.0 mi NE 5.8 mph - N/A   Overcast
10:56 PM 51.1 °F 50.0 °F 96% 30.22 in 5.0 mi NNE 5.8 mph - N/A   Overcast
11:56 PM 51.1 °F 50.0 °F 96% 30.21 in 4.0 mi NE 3.5 mph - N/A   Overcast